• In United Kingdom
  • List of Countries
  • For 7 days
  • Water Temperature
  • Satellite Maps
  • Weather Map
  • Weather Widgets
  • user-avatar
    Login

    Hourly Weather Tirana

    Today, 25 February, Sunday

    Time Temperature Precipitation Wind Pressure Humidity
    00:00 +6°C° 0.1 mm 4 mps 748 mmHg 77%
    01:00 +6°C° 0 mm 4 mps 748 mmHg 77%
    02:00 +6°C° 0.2 mm 4 mps 748 mmHg 77%
    03:00 +5°C° 0.2 mm 4 mps 748 mmHg 76%
    04:00 +5°C° 0.2 mm 4 mps 748 mmHg 76%
    05:00 +5°C° 0.5 mm 4 mps 748 mmHg 76%
    06:00 +5°C° 0.5 mm 5 mps 748 mmHg 76%
    07:00 +5°C° 0 mm 4 mps 747 mmHg 80%
    08:00 +6°C° 0.8 mm 5 mps 747 mmHg 78%
    09:00 +6°C° 0.8 mm 5 mps 747 mmHg 77%
    10:00 +6°C° 0.8 mm 5 mps 748 mmHg 75%
    11:00 +7°C° 0.4 mm 5 mps 747 mmHg 75%
    12:00 +7°C° 0.4 mm 5 mps 747 mmHg 75%
    13:00 +7°C° 0.4 mm 5 mps 747 mmHg 74%
    14:00 +6°C° 0.9 mm 5 mps 747 mmHg 77%
    15:00 +5°C° 0.9 mm 5 mps 746 mmHg 80%
    16:00 +5°C° 0.9 mm 5 mps 746 mmHg 83%
    17:00 +3°C° 1.8 mm 6 mps 746 mmHg 83%
    18:00 +3°C° 1.8 mm 6 mps 745 mmHg 83%
    19:00 +2°C° 1.8 mm 6 mps 745 mmHg 83%
    20:00 +2°C° 2 mm 7 mps 745 mmHg 83%
    21:00 0°C° 2 mm 7 mps 744 mmHg 83%
    22:00 0°C° 2 mm 8 mps 744 mmHg 84%
    23:00 0°C° 1.4 mm 8 mps 744 mmHg 85%

    Tomorrow, 26 February, Monday

    Time Temperature Precipitation Wind Pressure Humidity
    00:00 -1°C° 1.4 mm 8 mps 743 mmHg 86%
    01:00 -1°C° 1.4 mm 8 mps 743 mmHg 87%
    02:00 -1°C° 0.6 mm 8 mps 743 mmHg 87%
    03:00 -1°C° 0.6 mm 8 mps 743 mmHg 86%
    04:00 -1°C° 0.6 mm 7 mps 743 mmHg 86%
    05:00 -1°C° 0.4 mm 7 mps 743 mmHg 87%
    06:00 -1°C° 0.4 mm 6 mps 743 mmHg 88%
    07:00 0°C° 0.4 mm 5 mps 743 mmHg 89%
    08:00 0°C° 0.1 mm 5 mps 743 mmHg 88%
    09:00 +1°C° 0.1 mm 4 mps 743 mmHg 87%
    10:00 +3°C° 0.1 mm 4 mps 742 mmHg 86%
    11:00 +4°C° 0 mm 4 mps 742 mmHg 84%
    12:00 +5°C° 0 mm 3 mps 742 mmHg 83%
    13:00 +5°C° 0 mm 3 mps 741 mmHg 81%
    14:00 +7°C° 0.1 mm 3 mps 741 mmHg 81%
    15:00 +7°C° 0.1 mm 3 mps 741 mmHg 81%
    16:00 +7°C° 0.1 mm 2 mps 741 mmHg 81%
    17:00 +5°C° 0.9 mm 3 mps 742 mmHg 85%
    18:00 +4°C° 0.9 mm 3 mps 742 mmHg 88%
    19:00 +3°C° 0.9 mm 4 mps 742 mmHg 91%
    20:00 +3°C° 0.4 mm 4 mps 742 mmHg 92%
    21:00 +3°C° 0.4 mm 3 mps 743 mmHg 92%
    22:00 +3°C° 0.4 mm 3 mps 743 mmHg 93%
    23:00 +3°C° 0.4 mm 3 mps 743 mmHg 93%

    Day after tomorrow, 27 February, Tuesday

    Time Temperature Precipitation Wind Pressure Humidity
    00:00 +3°C° 0.4 mm 3 mps 744 mmHg 93%
    01:00 +2°C° 0.4 mm 3 mps 744 mmHg 94%
    02:00 +2°C° 0.5 mm 3 mps 744 mmHg 94%
    03:00 +2°C° 0.5 mm 3 mps 744 mmHg 93%
    04:00 +2°C° 0.5 mm 3 mps 745 mmHg 93%
    05:00 +1°C° 0.5 mm 4 mps 745 mmHg 93%
    06:00 +1°C° 0.5 mm 4 mps 745 mmHg 92%
    07:00 +1°C° 0.5 mm 4 mps 746 mmHg 91%
    08:00 +1°C° 0.5 mm 5 mps 746 mmHg 89%
    09:00 +2°C° 0.5 mm 6 mps 746 mmHg 87%
    10:00 +2°C° 0.5 mm 7 mps 747 mmHg 85%
    11:00 +3°C° 0.4 mm 6 mps 747 mmHg 84%
    12:00 +3°C° 0.4 mm 6 mps 747 mmHg 83%
    13:00 +3°C° 0.4 mm 5 mps 747 mmHg 82%
    14:00 +4°C° 0.2 mm 4 mps 747 mmHg 80%
    15:00 +4°C° 0.2 mm 3 mps 747 mmHg 79%
    16:00 +5°C° 0.2 mm 2 mps 747 mmHg 77%
    17:00 +4°C° 0.1 mm 2 mps 748 mmHg 80%
    18:00 +3°C° 0.1 mm 2 mps 748 mmHg 83%
    19:00 +2°C° 0.1 mm 2 mps 749 mmHg 86%
    20:00 +1°C° 0.2 mm 3 mps 749 mmHg 86%
    21:00 +1°C° 0.2 mm 3 mps 748 mmHg 85%
    22:00 0°C° 0.2 mm 4 mps 748 mmHg 85%
    23:00 0°C° 0.5 mm 4 mps 748 mmHg 86%

    28 February, Wednesday

    Time Temperature Precipitation Wind Pressure Humidity
    00:00 0°C° 0.5 mm 4 mps 748 mmHg 88%
    01:00 0°C° 0.5 mm 4 mps 748 mmHg 89%
    02:00 0°C° 0.2 mm 4 mps 747 mmHg 89%
    03:00 0°C° 0.2 mm 4 mps 747 mmHg 88%
    04:00 0°C° 0.2 mm 4 mps 747 mmHg 88%
    05:00 0°C° 0 mm 4 mps 747 mmHg 86%
    06:00 0°C° 0 mm 4 mps 747 mmHg 85%
    07:00 0°C° 0 mm 4 mps 747 mmHg 83%
    08:00 +1°C° 0.1 mm 4 mps 747 mmHg 83%
    09:00 +3°C° 0.1 mm 4 mps 747 mmHg 83%
    10:00 +5°C° 0.1 mm 4 mps 747 mmHg 83%
    11:00 +5°C° 0.2 mm 4 mps 748 mmHg 83%
    12:00 +5°C° 0.2 mm 5 mps 748 mmHg 84%
    13:00 +4°C° 0.2 mm 6 mps 749 mmHg 84%
    14:00 +3°C° 0.1 mm 6 mps 749 mmHg 82%
    15:00 +3°C° 0.1 mm 6 mps 750 mmHg 79%
    16:00 +3°C° 0.1 mm 6 mps 751 mmHg 77%
    17:00 +2°C° 0 mm 6 mps 752 mmHg 79%
    18:00 +1°C° 0 mm 6 mps 753 mmHg 81%
    19:00 -1°C° 0 mm 5 mps 753 mmHg 83%
    20:00 -1°C° 0 mm 5 mps 754 mmHg 83%
    21:00 -2°C° 0 mm 4 mps 755 mmHg 83%
    22:00 -2°C° 0 mm 4 mps 756 mmHg 83%
    23:00 -2°C° 0 mm 4 mps 756 mmHg 83%

    1 March, Thursday

    Time Temperature Precipitation Wind Pressure Humidity
    00:00 -1°C° 0 mm 3 mps 756 mmHg 83%
    01:00 -1°C° 0 mm 3 mps 756 mmHg 83%
    02:00 -2°C° 0 mm 3 mps 756 mmHg 83%
    03:00 -2°C° 0 mm 2 mps 756 mmHg 82%
    04:00 -2°C° 0 mm 2 mps 756 mmHg 82%
    05:00 -2°C° 0 mm 3 mps 756 mmHg 80%
    06:00 -1°C° 0 mm 3 mps 756 mmHg 79%
    07:00 -1°C° 0 mm 3 mps 756 mmHg 78%
    08:00 +1°C° 0 mm 3 mps 756 mmHg 76%
    09:00 +3°C° 0 mm 3 mps 756 mmHg 73%
    10:00 +5°C° 0 mm 3 mps 756 mmHg 71%
    11:00 +5°C° 0.1 mm 3 mps 755 mmHg 71%
    12:00 +7°C° 0.1 mm 3 mps 755 mmHg 70%
    13:00 +7°C° 0.1 mm 3 mps 755 mmHg 70%
    14:00 +7°C° 0.2 mm 3 mps 754 mmHg 73%
    15:00 +6°C° 0.2 mm 4 mps 754 mmHg 75%
    16:00 +6°C° 0.2 mm 4 mps 753 mmHg 78%
    17:00 +5°C° 0.3 mm 4 mps 753 mmHg 80%
    18:00 +5°C° 0.3 mm 4 mps 753 mmHg 82%
    19:00 +5°C° 0.3 mm 5 mps 753 mmHg 84%
    20:00 +5°C° 0.4 mm 5 mps 753 mmHg 85%
    21:00 +5°C° 0.4 mm 5 mps 752 mmHg 85%
    22:00 +5°C° 0.4 mm 5 mps 752 mmHg 86%
    23:00 +4°C° 0.2 mm 6 mps 751 mmHg 86%

    2 March, Friday

    Time Temperature Precipitation Wind Pressure Humidity
    00:00 +4°C° 0.2 mm 6 mps 751 mmHg 86%
    01:00 +4°C° 0.2 mm 6 mps 750 mmHg 87%
    02:00 +4°C° 0.6 mm 7 mps 750 mmHg 88%
    03:00 +5°C° 0.6 mm 7 mps 749 mmHg 89%
    04:00 +5°C° 0.6 mm 7 mps 749 mmHg 90%
    05:00 +5°C° 0.8 mm 8 mps 748 mmHg 90%
    06:00 +5°C° 0.8 mm 8 mps 748 mmHg 90%
    07:00 +5°C° 0.8 mm 8 mps 747 mmHg 91%
    08:00 +6°C° 0.7 mm 8 mps 747 mmHg 90%
    09:00 +6°C° 0.7 mm 8 mps 747 mmHg 89%
    10:00 +6°C° 0.7 mm 8 mps 747 mmHg 89%
    11:00 +7°C° 0.3 mm 8 mps 747 mmHg 88%
    12:00 +7°C° 0.3 mm 8 mps 747 mmHg 86%
    13:00 +9°C° 0.3 mm 8 mps 746 mmHg 85%
    14:00 +9°C° 0.2 mm 7 mps 746 mmHg 86%
    15:00 +9°C° 0.2 mm 7 mps 746 mmHg 87%
    16:00 +8°C° 0.2 mm 6 mps 745 mmHg 87%
    17:00 +8°C° 0.5 mm 6 mps 745 mmHg 88%
    18:00 +8°C° 0.5 mm 5 mps 745 mmHg 89%
    19:00 +8°C° 0.5 mm 5 mps 745 mmHg 90%
    20:00 +8°C° 2.2 mm 5 mps 745 mmHg 90%
    21:00 +8°C° 2.2 mm 5 mps 745 mmHg 90%
    22:00 +8°C° 2.2 mm 5 mps 745 mmHg 91%
    23:00 +8°C° 1.2 mm 5 mps 745 mmHg 91%
    Show more